Total_Precipitation_Accumulation
0.20 0.23 0.20 0.17 0.13 0.16 0.18 0.13 0.09 0.13 0.17 0.13 0.07 0.07 0.06 0.07 0.07 0.10 0.14 0.12 0.14 0.17 0.18 0.18 0.19 0.18 0.18 0.20 0.20 0.18 0.16 0.14 0.15 0.14 0.11 0.08 0.07 0.07 0.08 0.09 0.11 0.11 0.11
0.22 0.21 0.21 0.20 0.19 0.20 0.22 0.23 0.18 0.15 0.15 0.18 0.10 0.05 0.06 0.10 0.11 0.13 0.17 0.18 0.20 0.22 0.27 0.29 0.29 0.25 0.23 0.26 0.27 0.26 0.24 0.23 0.24 0.24 0.21 0.19 0.15 0.14 0.13 0.13 0.13 0.13 0.12
0.22 0.22 0.26 0.30 0.28 0.27 0.26 0.25 0.24 0.21 0.18 0.17 0.16 0.14 0.14 0.13 0.14 0.18 0.25 0.31 0.34 0.32 0.30 0.31 0.31 0.31 0.29 0.32 0.32 0.31 0.32 0.30 0.29 0.28 0.28 0.28 0.26 0.24 0.23 0.23 0.21 0.20 0.17
0.29 0.35 0.41 0.42 0.41 0.39 0.42 0.43 0.39 0.37 0.34 0.31 0.31 0.31 0.27 0.27 0.26 0.29 0.33 0.39 0.41 0.40 0.35 0.31 0.29 0.30 0.29 0.28 0.28 0.29 0.29 0.28 0.31 0.32 0.34 0.34 0.34 0.33 0.31 0.31 0.30 0.28 0.25
0.49 0.57 0.62 0.62 0.62 0.64 0.63 0.57 0.55 0.51 0.50 0.48 0.39 0.39 0.34 0.35 0.38 0.38 0.41 0.43 0.44 0.44 0.40 0.35 0.32 0.29 0.25 0.24 0.24 0.23 0.24 0.25 0.30 0.30 0.30 0.32 0.35 0.37 0.33 0.33 0.34 0.33 0.30
0.91 0.96 0.95 0.94 0.91 0.88 0.81 0.73 0.70 0.63 0.57 0.52 0.41 0.39 0.38 0.40 0.46 0.45 0.44 0.41 0.38 0.35 0.34 0.32 0.31 0.28 0.23 0.21 0.20 0.19 0.20 0.21 0.22 0.24 0.25 0.28 0.33 0.34 0.31 0.29 0.29 0.30 0.31
1.52 1.48 1.38 1.30 1.21 1.16 1.10 1.04 0.91 0.81 0.71 0.61 0.56 0.50 0.41 0.40 0.41 0.40 0.38 0.34 0.34 0.32 0.31 0.31 0.26 0.23 0.21 0.20 0.19 0.18 0.18 0.19 0.21 0.24 0.26 0.28 0.30 0.30 0.29 0.28 0.29 0.29 0.29
2.04 1.99 1.90 1.80 1.61 1.46 1.29 1.15 1.03 0.94 0.79 0.65 0.61 0.58 0.48 0.36 0.30 0.27 0.26 0.26 0.27 0.29 0.29 0.27 0.24 0.21 0.17 0.15 0.15 0.15 0.15 0.15 0.18 0.22 0.28 0.34 0.37 0.37 0.35 0.34 0.32 0.33 0.33
2.54 2.40 2.23 2.03 1.83 1.65 1.51 1.33 1.14 0.99 0.83 0.68 0.60 0.56 0.51 0.44 0.33 0.24 0.21 0.21 0.20 0.20 0.20 0.19 0.17 0.15 0.14 0.12 0.12 0.15 0.14 0.13 0.14 0.17 0.23 0.30 0.34 0.34 0.35 0.35 0.35 0.38 0.40
2.55 2.32 2.22 2.10 1.90 1.60 1.33 1.09 0.90 0.74 0.62 0.53 0.46 0.40 0.36 0.33 0.32 0.27 0.19 0.16 0.14 0.13 0.12 0.11 0.11 0.12 0.12 0.12 0.15 0.18 0.18 0.16 0.17 0.17 0.19 0.23 0.25 0.29 0.34 0.41 0.45 0.47 0.48
2.28 2.05 1.91 1.74 1.45 1.12 0.84 0.65 0.51 0.43 0.39 0.36 0.32 0.30 0.29 0.28 0.27 0.27 0.23 0.16 0.14 0.13 0.13 0.14 0.13 0.12 0.11 0.11 0.15 0.20 0.21 0.18 0.17 0.16 0.17 0.19 0.21 0.23 0.27 0.33 0.40 0.45 0.49
1.87 1.53 1.24 0.96 0.75 0.61 0.50 0.42 0.35 0.30 0.27 0.25 0.24 0.22 0.21 0.21 0.21 0.23 0.22 0.17 0.13 0.11 0.11 0.11 0.12 0.11 0.10 0.10 0.12 0.16 0.15 0.14 0.13 0.12 0.11 0.11 0.11 0.13 0.15 0.21 0.28 0.36 0.43
1.22 0.96 0.73 0.57 0.44 0.35 0.29 0.25 0.21 0.18 0.17 0.16 0.15 0.15 0.15 0.15 0.14 0.14 0.15 0.15 0.13 0.10 0.09 0.09 0.09 0.10 0.11 0.11 0.11 0.12 0.12 0.11 0.10 0.08 0.07 0.06 0.06 0.07 0.08 0.11 0.16 0.22 0.31
0.80 0.61 0.46 0.35 0.29 0.25 0.22 0.19 0.16 0.16 0.15 0.14 0.14 0.13 0.12 0.12 0.12 0.12 0.13 0.13 0.14 0.12 0.10 0.09 0.07 0.07 0.07 0.08 0.08 0.09 0.08 0.09 0.08 0.07 0.06 0.05 0.04 0.04 0.05 0.06 0.08 0.10 0.14
0.43 0.35 0.30 0.25 0.21 0.19 0.18 0.18 0.18 0.16 0.15 0.14 0.12 0.10 0.10 0.09 0.09 0.10 0.11 0.13 0.17 0.18 0.13 0.08 0.06 0.04 0.04 0.04 0.05 0.05 0.07 0.07 0.07 0.06 0.05 0.04 0.04 0.04 0.04 0.05 0.06 0.07 0.08
0.31 0.28 0.25 0.21 0.18 0.15 0.13 0.12 0.12 0.11 0.11 0.11 0.11 0.11 0.11 0.10 0.10 0.10 0.10 0.11 0.14 0.18 0.16 0.08 0.06 0.05 0.05 0.05 0.05 0.06 0.06 0.06 0.06 0.07 0.07 0.06 0.06 0.06 0.06 0.07 0.08 0.09 0.09
0.20 0.18 0.16 0.15 0.13 0.12 0.11 0.11 0.11 0.11 0.12 0.12 0.12 0.11 0.11 0.11 0.10 0.09 0.09 0.09 0.10 0.14 0.16 0.09 0.07 0.07 0.08 0.10 0.10 0.12 0.11 0.12 0.11 0.14 0.15 0.13 0.12 0.10 0.10 0.11 0.12 0.12 0.12
0.12 0.11 0.11 0.11 0.11 0.11 0.11 0.10 0.10 0.10 0.10 0.10 0.09 0.09 0.08 0.08 0.10 0.09 0.09 0.09 0.09 0.12 0.16 0.14 0.10 0.09 0.11 0.13 0.15 0.16 0.10 0.08 0.11 0.15 0.15 0.12 0.11 0.11 0.10 0.10 0.10 0.09 0.08
0.12 0.12 0.12 0.11 0.10 0.10 0.09 0.09 0.09 0.08 0.08 0.07 0.07 0.07 0.07 0.07 0.08 0.09 0.11 0.11 0.12 0.13 0.19 0.22 0.18 0.15 0.13 0.11 0.16 0.14 0.14 0.21 0.14 0.12 0.11 0.08 0.07 0.06 0.06 0.05 0.05 0.05 0.04
0.11 0.10 0.09 0.09 0.09 0.08 0.06 0.06 0.06 0.06 0.06 0.06 0.05 0.05 0.05 0.06 0.07 0.10 0.12 0.14 0.17 0.20 0.23 0.25 0.20 0.16 0.14 0.13 0.20 0.21 0.19 0.21 0.19 0.11 0.10 0.07 0.06 0.04 0.04 0.05 0.06 0.05 0.03
0.09 0.07 0.05 0.04 0.03 0.02 0.02 0.02 0.02 0.02 0.03 0.03 0.03 0.03 0.03 0.03 0.06 0.10 0.12 0.16 0.22 0.26 0.25 0.26 0.23 0.18 0.15 0.18 0.23 0.25 0.26 0.21 0.16 0.12 0.13 0.11 0.14 0.16 0.19 0.18 0.14 0.10 0.06
0.04 0.02 0.02 0.01 0.01 0.01 0.00 0.00 0.00 0.01 0.02 0.03 0.04 0.04 0.03 0.03 0.04 0.07 0.10 0.15 0.22 0.27 0.28 0.29 0.26 0.24 0.22 0.27 0.33 0.36 0.38 0.34 0.24 0.17 0.21 0.15 0.15 0.20 0.24 0.26 0.24 0.15 0.09
0.04 0.03 0.02 0.02 0.02 0.01 0.00 0.00 0.00 0.01 0.03 0.06 0.07 0.07 0.05 0.04 0.08 0.10 0.09 0.09 0.12 0.14 0.23 0.33 0.37 0.35 0.36 0.41 0.51 0.49 0.45 0.44 0.38 0.30 0.39 0.31 0.23 0.27 0.24 0.27 0.32 0.26 0.19
0.05 0.05 0.04 0.03 0.05 0.02 0.00 0.00 0.00 0.01 0.04 0.06 0.07 0.08 0.10 0.12 0.10 0.08 0.07 0.08 0.12 0.19 0.25 0.33 0.43 0.45 0.45 0.48 0.55 0.57 0.53 0.48 0.39 0.38 0.50 0.45 0.28 0.29 0.28 0.44 0.51 0.46 0.36
0.06 0.05 0.04 0.05 0.07 0.06 0.01 0.00 0.00 0.02 0.04 0.05 0.06 0.07 0.07 0.11 0.09 0.09 0.08 0.12 0.17 0.25 0.26 0.36 0.47 0.51 0.53 0.55 0.56 0.55 0.58 0.58 0.49 0.39 0.44 0.47 0.38 0.32 0.33 0.52 0.60 0.65 0.55
0.07 0.05 0.05 0.07 0.08 0.09 0.02 0.00 0.01 0.02 0.04 0.05 0.07 0.10 0.09 0.08 0.10 0.10 0.08 0.14 0.24 0.28 0.38 0.57 0.69 0.71 0.67 0.64 0.60 0.59 0.61 0.62 0.60 0.55 0.47 0.49 0.49 0.44 0.44 0.56 0.68 0.67 0.62